Date String (YYYY-MM-DD hh:mm:ss) UTC,Instrument flags,absolute air pressure of the measurement (hPa),sample flow rate (lpm),inlet stack bypass flow (lpm),air temperature of the measurement (°C),ambient temperature measured by the external sensor (°C),aerosol sample conditioner tube jacket temperature (°C),OPC LED temperature (°C),internal box temperature (°C),relative humidity of the measurement (%),span deviation,mass concentration of particles derived from Lorenz-Mie calculation of OPC scattering (μg/m³),mass concentration of particles derived from Lorenz-Mie calculation of OPC scattering (μg/m³),mass concentration of particles derived from Lorenz-Mie calculation of OPC scattering (μg/m³)
DateTimeUTC,F1_M11,P_M11,Q1_M11,Q2_M11,T1_M11,T2_M11,T3_M11,T4_M11,T5_M11,U1_M11,ZSPAN_M11,X2_M11,X0_M11,X1_M11
2023-05-31 08:00:00,SystemResetWarning,0829.8,5.01,000.00,028.9,027.0,000.0,037.4,030.4,20.7,0000.0,0003.72,0009.34,0002.53
2023-05-31 08:01:00,SystemResetWarning,0829.8,5.00,000.00,028.9,027.0,000.0,037.4,030.4,20.8,0000.0,0003.73,0009.50,0002.53
2023-05-31 08:02:00,SystemResetWarning,0829.7,5.00,000.00,028.9,026.9,000.0,037.4,030.4,20.8,0000.0,0003.72,0010.80,0002.54
2023-05-31 08:03:00,SystemResetWarning,0829.7,5.00,000.00,028.9,026.9,000.0,037.4,030.4,20.7,0000.0,0003.73,0011.14,0002.54
2023-05-31 08:04:00,SystemResetWarning,0829.7,4.99,000.00,028.9,026.9,000.0,037.4,030.3,20.6,0000.0,0003.73,0011.80,0002.53
2023-05-31 08:05:00,SystemResetWarning,0829.7,4.99,000.00,028.9,026.9,000.0,037.3,030.3,20.6,0000.0,0003.65,0011.19,0002.51
2023-05-31 08:06:00,SystemResetWarning,0829.7,5.01,000.00,028.9,026.9,000.0,037.3,030.4,20.6,0000.0,0003.63,0010.89,0002.52
2023-05-31 08:07:00,SystemResetWarning,0829.7,5.01,000.00,028.8,026.8,000.0,037.3,030.3,20.7,0000.0,0003.65,0011.39,0002.52
2023-05-31 08:08:00,SystemResetWarning,0829.7,5.00,000.00,028.8,026.8,000.0,037.3,030.3,20.7,0000.0,0003.65,0011.70,0002.54
2023-05-31 08:09:00,SystemResetWarning,0829.7,4.99,000.00,028.8,026.8,000.0,037.3,030.3,20.7,0000.0,0003.63,0011.98,0002.55
2023-05-31 08:10:00,SystemResetWarning,0829.7,4.99,000.00,028.8,026.8,000.0,037.3,030.3,20.7,0000.0,0003.62,0011.67,0002.53
2023-05-31 08:11:00,SystemResetWarning,0829.7,5.00,000.00,028.8,026.8,000.0,037.3,030.3,20.8,0000.0,0003.55,0011.41,0002.50
2023-05-31 08:12:00,SystemResetWarning,0829.7,5.00,000.00,028.8,026.8,000.0,037.2,030.3,20.7,0000.0,0003.55,0011.08,0002.49
2023-05-31 08:13:00,SystemResetWarning,0829.7,5.00,000.00,028.8,026.9,000.0,037.2,030.3,20.8,0000.0,0003.56,0009.87,0002.49
2023-05-31 08:14:00,SystemResetWarning,0829.7,5.01,000.00,028.8,026.9,000.0,037.2,030.3,20.9,0000.0,0003.60,0009.84,0002.49
2023-05-31 08:15:00,SystemResetWarning,0829.7,5.00,000.00,028.8,026.8,000.0,037.2,030.3,21.0,0000.0,0003.61,0009.16,0002.49
2023-05-31 08:16:00,SystemResetWarning,0829.6,5.00,000.00,028.8,026.8,000.0,037.2,030.3,21.1,0000.0,0003.63,0009.18,0002.49
2023-05-31 08:17:00,SystemResetWarning,0829.6,4.99,000.00,028.7,026.8,000.0,037.2,030.3,20.9,0000.0,0003.66,0009.02,0002.49
2023-05-31 08:18:00,SystemResetWarning,0829.7,4.99,000.00,028.7,026.8,000.0,037.2,030.3,20.7,0000.0,0003.66,0008.46,0002.48
2023-05-31 08:19:00,SystemResetWarning,0829.7,5.00,000.00,028.7,026.8,000.0,037.2,030.3,20.8,0000.0,0003.67,0008.51,0002.46
2023-05-31 08:20:00,SystemResetWarning,0829.7,5.01,000.00,028.7,026.8,000.0,037.2,030.2,20.9,0000.0,0003.70,0008.44,0002.47
2023-05-31 08:21:00,SystemResetWarning,0829.7,4.99,000.00,028.7,026.8,000.0,037.1,030.2,21.0,0000.0,0003.73,0008.54,0002.49
2023-05-31 08:22:00,SystemResetWarning,0829.7,4.99,000.00,028.7,026.8,000.0,037.1,030.2,20.8,0000.0,0003.84,0009.48,0002.51
2023-05-31 08:23:00,SystemResetWarning,0829.6,5.00,000.00,028.7,026.8,000.0,037.1,030.2,20.6,0000.0,0003.83,0010.07,0002.52
2023-05-31 08:24:00,SystemResetWarning,0829.7,5.01,000.00,028.7,026.8,000.0,037.1,030.2,20.7,0000.0,0003.83,0010.94,0002.52
2023-05-31 08:25:00,SystemResetWarning,0829.6,5.00,000.00,028.7,026.8,000.0,037.1,030.2,20.7,0000.0,0003.82,0011.78,0002.50
2023-05-31 08:26:00,SystemResetWarning,0829.6,5.00,000.00,028.7,026.8,000.0,037.1,030.2,20.5,0000.0,0003.81,0012.22,0002.49
2023-05-31 08:27:00,SystemResetWarning,0829.6,4.99,000.00,028.7,026.8,000.0,037.1,030.2,20.4,0000.0,0003.88,0013.42,0002.49
2023-05-31 08:28:00,SystemResetWarning,0829.5,4.99,000.00,028.7,026.8,000.0,037.1,030.2,20.5,0000.0,0003.86,0013.70,0002.49
2023-05-31 08:29:00,SystemResetWarning,0829.5,4.99,000.00,028.7,026.9,000.0,037.1,030.2,20.5,0000.0,0003.84,0013.63,0002.50
2023-05-31 08:30:00,SystemResetWarning,0829.5,5.01,000.00,028.7,026.9,000.0,037.1,030.3,20.5,0000.0,0003.85,0013.44,0002.51
2023-05-31 08:31:00,SystemResetWarning,0829.4,5.00,000.00,028.7,026.9,000.0,037.1,030.2,20.4,0000.0,0003.87,0013.63,0002.50
2023-05-31 08:32:00,SystemResetWarning,0829.4,5.01,000.00,028.7,026.8,000.0,037.1,030.2,20.4,0000.0,0003.89,0013.72,0002.49
2023-05-31 08:33:00,SystemResetWarning,0829.3,5.01,000.00,028.6,026.8,000.0,037.0,030.2,20.4,0000.0,0003.81,0012.88,0002.48
2023-05-31 08:34:00,SystemResetWarning,0829.3,5.00,000.00,028.6,026.8,000.0,037.0,030.2,20.3,0000.0,0003.83,0012.85,0002.49
2023-05-31 08:35:00,SystemResetWarning,0829.3,5.00,000.00,028.6,026.8,000.0,037.0,030.2,20.3,0000.0,0003.83,0012.18,0002.48
2023-05-31 08:36:00,SystemResetWarning,0829.3,4.99,000.00,028.6,026.7,000.0,037.0,030.1,20.2,0000.0,0003.82,0012.03,0002.49
2023-05-31 08:37:00,SystemResetWarning,0829.3,4.99,000.00,028.6,026.8,000.0,037.0,030.1,20.2,0000.0,0003.81,0011.74,0002.50
2023-05-31 08:38:00,SystemResetWarning,0829.3,4.99,000.00,028.6,026.8,000.0,037.0,030.1,20.2,0000.0,0003.78,0010.80,0002.52
2023-05-31 08:39:00,SystemResetWarning,0829.4,4.99,000.00,028.6,026.7,000.0,037.0,030.1,20.3,0000.0,0003.77,0010.49,0002.53
2023-05-31 08:40:00,SystemResetWarning,0829.3,5.01,000.00,028.6,026.7,000.0,037.0,030.1,20.3,0000.0,0003.82,0011.01,0002.54
2023-05-31 08:41:00,SystemResetWarning,0829.4,5.00,000.00,028.6,026.7,000.0,037.0,030.1,20.6,0000.0,0003.81,0011.01,0002.55
2023-05-31 08:42:00,SystemResetWarning,0829.3,5.01,000.00,028.6,026.7,000.0,037.0,030.1,20.6,0000.0,0003.78,0010.71,0002.54
2023-05-31 08:43:00,SystemResetWarning,0829.4,5.00,000.00,028.6,026.7,000.0,037.0,030.1,20.3,0000.0,0003.76,0010.80,0002.54
2023-05-31 08:44:00,SystemResetWarning,0829.3,5.00,000.00,028.5,026.6,000.0,037.0,030.1,20.2,0000.0,0003.77,0010.90,0002.54
2023-05-31 08:45:00,SystemResetWarning,0829.4,4.99,000.00,028.5,026.6,000.0,037.0,030.1,20.2,0000.0,0003.77,0010.40,0002.53
2023-05-31 08:46:00,SystemResetWarning,0829.4,4.99,000.00,028.5,026.6,000.0,036.9,030.1,20.2,0000.0,0003.79,0010.36,0002.53
2023-05-31 08:47:00,SystemResetWarning,0829.3,4.99,000.00,028.5,026.7,000.0,036.9,030.1,20.2,0000.0,0003.80,0009.83,0002.53
2023-05-31 08:48:00,SystemResetWarning,0829.3,5.00,000.00,028.5,026.7,000.0,036.9,030.1,20.3,0000.0,0003.83,0010.03,0002.56
2023-05-31 08:49:00,SystemResetWarning,0829.3,5.01,000.00,028.5,026.7,000.0,036.9,030.1,20.4,0000.0,0003.82,0010.91,0002.57
2023-05-31 08:50:00,SystemResetWarning,0829.3,5.01,000.00,028.5,026.6,000.0,036.9,030.0,20.5,0000.0,0003.82,0011.11,0002.57
2023-05-31 08:51:00,SystemResetWarning,0829.2,4.99,000.00,028.5,026.6,000.0,036.9,030.0,20.4,0000.0,0003.79,0010.66,0002.57
2023-05-31 08:52:00,SystemResetWarning,0829.2,4.98,000.00,028.5,026.6,000.0,036.9,030.0,20.3,0000.0,0003.79,0010.70,0002.57
2023-05-31 08:53:00,SystemResetWarning,0829.2,5.00,000.00,028.5,026.6,000.0,036.9,030.0,20.2,0000.0,0003.77,0010.72,0002.58
2023-05-31 08:54:00,SystemResetWarning,0829.2,5.01,000.00,028.5,026.6,000.0,036.9,030.0,20.3,0000.0,0003.81,0010.93,0002.60
2023-05-31 08:55:00,SystemResetWarning,0829.2,5.01,000.00,028.5,026.5,000.0,036.9,030.0,20.3,0000.0,0003.82,0011.28,0002.62
2023-05-31 08:56:00,SystemResetWarning,0829.2,5.00,000.00,028.5,026.5,000.0,036.9,030.0,20.3,0000.0,0003.80,0011.34,0002.60
2023-05-31 08:57:00,SystemResetWarning,0829.2,5.00,000.00,028.4,026.5,000.0,036.9,030.0,20.3,0000.0,0003.77,0011.44,0002.60
2023-05-31 08:58:00,SystemResetWarning,0829.2,5.00,000.00,028.4,026.6,000.0,036.8,030.0,20.3,0000.0,0003.76,0011.27,0002.61
2023-05-31 08:59:00,SystemResetWarning,0829.2,4.99,000.00,028.4,026.6,000.0,036.8,030.0,20.4,0000.0,0003.72,0011.09,0002.57
